Shenandoah, IA

6:40 PM CDT on September 25, 2017 (GMT -0500)
Shenandoah Municipal

Weather History for KSDA - June, 2013

Change the Weather History Date:

Thursday, June 13, 2013

  Actual Average Record
Temperature  
Mean Temperature 70 °F -  
Max Temperature 80 °F 86 °F 99 °F (1952)
Min Temperature 59 °F 61 °F 43 °F (1985)
Cooling Degree Days 4    
Growing Degree Days 20 (Base 50)    
Moisture  
Dew Point 54 °F    
Average Humidity 64    
Maximum Humidity 88    
Minimum Humidity 24    
Precipitation  
Precipitation 0.01 in - - ()
Sea Level Pressure  
Sea Level Pressure 30.06 in    
Wind  
Wind Speed 4 mph (North)    
Max Wind Speed 14 mph    
Max Gust Speed 16 mph    
Visibility 10 miles    
Events Rain    
Averages and records for this station are not official NWS values.
T = Trace of Precipitation, MM = Missing Value Source: NWS Daily Summary

Daily Weather History Graph

Daily Weather History Graph

Search for Another Location

Airport or City:

Trip Planner

Search our weather history database for the weather conditions in past years. The results will help you decide how hot, cold, wet, or windy it might be!

Date:

Astronomy

Jun. 13, 2013 Rise Set
Actual Time 5:49 AM CDT 8:54 PM CDT
Civil Twilight 5:16 AM CDT 9:27 PM CDT
Nautical Twilight 4:33 AM CDT 10:09 PM CDT
Astronomical Twilight 3:43 AM CDT 11:00 PM CDT
Moon 10:28 AM CDT (6/13) 11:59 PM CDT (6/13)
Length of Visible Light 16h 10m
Length of Day
15h 04m
Waxing Crescent, 22% of the Moon is Illuminated
Jun 13
Waxing Crescent
Jun 16
First Quarter
Jun 23
Full
Jun 29
Last Quarter
Jul 8
New

Hourly Weather History & Observations

Time (CDT) Temp. Dew Point Humidity Pressure Visibility Wind Dir Wind Speed Gust Speed Precip Events Conditions
12:15 AM 62.6 °F 53.6 °F 72% 30.03 in 10.0 mi NNW 9.2 mph - N/A   Scattered Clouds
12:35 AM 62.6 °F 51.8 °F 68% 30.03 in 10.0 mi NW 4.6 mph - N/A   Scattered Clouds
12:55 AM 62.6 °F 51.8 °F 68% 30.04 in 10.0 mi NNW 6.9 mph - N/A   Scattered Clouds
1:15 AM 62.6 °F 51.8 °F 68% 30.04 in 10.0 mi NNW 5.8 mph - N/A   Scattered Clouds
1:35 AM 62.6 °F 51.8 °F 68% 30.05 in 10.0 mi NW 6.9 mph - N/A   Mostly Cloudy
1:55 AM 62.6 °F 51.8 °F 68% 30.04 in 10.0 mi NW 6.9 mph - N/A   Scattered Clouds
2:15 AM 62.6 °F 51.8 °F 68% 30.04 in 10.0 mi NW 5.8 mph - N/A   Clear
2:35 AM 62.6 °F 51.8 °F 68% 30.05 in 10.0 mi NW 4.6 mph - N/A   Clear
2:55 AM 60.8 °F 53.6 °F 77% 30.05 in 10.0 mi NW 4.6 mph - N/A   Clear
3:15 AM 60.8 °F 53.6 °F 77% 30.06 in 10.0 mi WNW 4.6 mph - N/A   Scattered Clouds
3:35 AM 60.8 °F 53.6 °F 77% 30.06 in 10.0 mi Calm Calm - N/A   Scattered Clouds
3:55 AM 60.8 °F 51.8 °F 72% 30.06 in 10.0 mi Calm Calm - N/A   Scattered Clouds
4:15 AM 60.8 °F 51.8 °F 72% 30.06 in 10.0 mi WSW 3.5 mph - N/A   Scattered Clouds
4:35 AM 60.8 °F 51.8 °F 72% 30.05 in 10.0 mi Calm Calm - N/A   Scattered Clouds
4:55 AM 59.0 °F 51.8 °F 77% 30.06 in 10.0 mi Calm Calm - N/A   Scattered Clouds
5:15 AM 60.8 °F 51.8 °F 72% 30.06 in 10.0 mi NW 4.6 mph - N/A   Scattered Clouds
5:35 AM 60.8 °F 51.8 °F 72% 30.05 in 10.0 mi Calm Calm - N/A   Scattered Clouds
5:55 AM 59.0 °F 51.8 °F 77% 30.07 in 10.0 mi Calm Calm - N/A   Clear
6:15 AM 59.0 °F 51.8 °F 77% 30.08 in 10.0 mi NW 3.5 mph - N/A   Scattered Clouds
6:35 AM 59.0 °F 51.8 °F 77% 30.09 in 10.0 mi NNW 4.6 mph - N/A   Clear
6:55 AM 60.8 °F 53.6 °F 77% 30.09 in 10.0 mi Calm Calm - N/A   Clear
7:15 AM 62.6 °F 53.6 °F 72% 30.10 in 10.0 mi North 4.6 mph - N/A   Clear
7:35 AM 62.6 °F 53.6 °F 72% 30.10 in 10.0 mi North 5.8 mph - N/A   Clear
7:55 AM 64.4 °F 53.6 °F 68% 30.10 in 10.0 mi North 6.9 mph - N/A   Clear
8:15 AM 64.4 °F 53.6 °F 68% 30.10 in 10.0 mi North 8.1 mph - N/A   Clear
8:35 AM 66.2 °F 53.6 °F 64% 30.10 in 10.0 mi North 6.9 mph - N/A   Clear
8:55 AM 66.2 °F 53.6 °F 64% 30.10 in 10.0 mi NNE 8.1 mph - N/A   Clear
9:15 AM 68.0 °F 53.6 °F 60% 30.11 in 10.0 mi NNE 8.1 mph - N/A   Clear
9:35 AM 69.8 °F 53.6 °F 56% 30.11 in 10.0 mi North 6.9 mph - N/A   Clear
9:55 AM 69.8 °F 53.6 °F 56% 30.11 in 10.0 mi Calm Calm - N/A   Clear
10:15 AM 71.6 °F 53.6 °F 53% 30.11 in 10.0 mi NNE 3.5 mph - N/A   Clear
10:35 AM 71.6 °F 53.6 °F 53% 30.11 in 10.0 mi ENE 4.6 mph - N/A   Clear
10:55 AM 73.4 °F 53.6 °F 50% 30.11 in 10.0 mi NNE 5.8 mph - N/A   Clear
11:15 AM 73.4 °F 53.6 °F 50% 30.10 in 10.0 mi ENE 6.9 mph - N/A   Scattered Clouds
11:35 AM 75.2 °F 51.8 °F 44% 30.11 in 10.0 mi NE 8.1 mph - N/A   Scattered Clouds
11:55 AM 75.2 °F 51.8 °F 44% 30.10 in 10.0 mi ENE 3.5 mph - N/A   Clear
12:15 PM 77.0 °F 51.8 °F 41% 30.10 in 10.0 mi NE 4.6 mph - N/A   Clear
12:35 PM 78.8 °F 51.8 °F 39% 30.09 in 10.0 mi NE 6.9 mph 16.1 mph N/A   Clear
12:55 PM 78.8 °F 51.8 °F 39% 30.09 in 10.0 mi East 5.8 mph - N/A   Clear
1:15 PM 78.8 °F 48.2 °F 34% 30.08 in 10.0 mi NE 6.9 mph - N/A   Clear
1:35 PM 78.8 °F 48.2 °F 34% 30.08 in 10.0 mi Calm Calm - N/A   Clear
1:55 PM 80.6 °F 44.6 °F 28% 30.08 in 10.0 mi NNW 3.5 mph - N/A   Clear
2:15 PM 80.6 °F 42.8 °F 26% 30.07 in 10.0 mi Calm Calm - N/A   Clear
2:35 PM 80.6 °F 42.8 °F 26% 30.07 in 10.0 mi Calm Calm - N/A   Clear
2:55 PM 80.6 °F 44.6 °F 28% 30.07 in 10.0 mi Calm Calm - N/A   Clear
3:15 PM 80.6 °F 41.0 °F 24% 30.08 in 10.0 mi Calm Calm - N/A   Clear
3:35 PM 78.8 °F 46.4 °F 32% 30.10 in 10.0 mi Calm Calm - N/A   Clear
4:17 PM 75.2 °F 55.4 °F 50% 30.10 in 10.0 mi Calm Calm - N/A Rain Light Rain
4:38 PM 73.4 °F 60.8 °F 65% 30.07 in 10.0 mi Calm Calm - N/A Rain Light Rain
4:57 PM 73.4 °F 60.8 °F 65% 30.09 in 10.0 mi Calm Calm - N/A Rain Light Rain
5:17 PM 71.6 °F 60.8 °F 69% 30.08 in 10.0 mi Calm Calm - N/A Rain Rain
5:38 PM 69.8 °F 60.8 °F 73% 30.09 in 10.0 mi SW 3.5 mph - 0.01 in Rain Light Rain
5:57 PM 69.8 °F 60.8 °F 73% 30.04 in 10.0 mi SE 4.6 mph - N/A Rain Light Rain
6:17 PM 69.8 °F 60.8 °F 73% 29.99 in 10.0 mi ENE 13.8 mph - N/A Rain Light Rain
6:37 PM 69.8 °F 60.8 °F 73% 29.98 in 10.0 mi ENE 9.2 mph - N/A   Clear
6:57 PM 71.6 °F 60.8 °F 69% 30.00 in 10.0 mi Calm Calm - N/A   Scattered Clouds
7:17 PM 71.6 °F 60.8 °F 69% 29.98 in 10.0 mi Calm Calm - N/A   Clear
7:37 PM 73.4 °F 60.8 °F 65% 29.99 in 10.0 mi Calm Calm - N/A   Clear
7:57 PM 73.4 °F 62.6 °F 69% 29.99 in 10.0 mi WSW 5.8 mph - N/A   Clear
8:36 PM - - N/A% - - SW 3.5 mph - N/A   Unknown
8:57 PM 68.0 °F 60.8 °F 78% 30.01 in 10.0 mi NW 3.5 mph - N/A   Scattered Clouds
9:17 PM 66.2 °F 60.8 °F 83% 30.01 in 10.0 mi Calm Calm - N/A   Scattered Clouds
9:36 PM 66.2 °F 60.8 °F 83% 30.01 in 10.0 mi Calm Calm - N/A   Scattered Clouds
9:56 PM 66.2 °F 60.8 °F 83% 30.02 in 10.0 mi Calm Calm - N/A   Scattered Clouds
10:16 PM 64.4 °F 60.8 °F 88% 30.03 in 10.0 mi Calm Calm - N/A   Scattered Clouds
10:36 PM 64.4 °F 59.0 °F 83% 30.04 in 10.0 mi Calm Calm - N/A   Scattered Clouds
10:58 PM 64.4 °F 59.0 °F 83% 30.05 in 10.0 mi Calm Calm - N/A   Scattered Clouds
11:17 PM 62.6 °F 57.2 °F 82% 30.05 in 10.0 mi Calm Calm - N/A   Scattered Clouds
11:36 PM 62.6 °F 57.2 °F 82% 30.05 in 10.0 mi Calm Calm - N/A   Scattered Clouds
11:58 PM 64.4 °F 57.2 °F 77% 30.06 in 10.0 mi NE 3.5 mph - N/A   Scattered Clouds